Location: Newark
(27.9675°N, 86.8869°E)
Time: 14:28:41
(UTC+00:00)

Transit 4A - Visible Passes

Search period start: 16 October 2019 00:00
Search period end: 26 October 2019 00:00
Orbit: 866 x 978 km, 66.8° (Epoch: 15 October)

Date Brightness Start Highest point End Pass type
(mag) Time Alt. Az. Time Alt. Az. Time Alt. Az.
16 Oct 9.3 22:20:08 10° S 22:26:00 40° ESE 22:31:49 10° NE visible
17 Oct 8.4 22:28:56 10° S 22:35:14 63° ESE 22:41:28 10° NNE visible
18 Oct 10.8 20:58:03 10° ESE 20:58:56 10° ESE 20:59:49 10° E visible
18 Oct 7.9 22:38:08 10° SSW 22:44:31 84° WNW 22:50:52 10° NNE visible
19 Oct 10.2 21:05:57 16° SE 21:08:01 18° ESE 21:12:08 10° ENE visible
19 Oct 8.1 22:49:37 21° SW 22:53:54 54° WNW 23:00:03 10° NNE visible
20 Oct 9.5 21:17:04 29° ESE 21:17:09 29° ESE 21:22:30 10° NE visible
20 Oct 8.5 23:00:42 25° WSW 23:03:19 35° WNW 23:09:02 10° N visible
21 Oct 9.0 21:27:45 40° ENE 21:27:45 40° ENE 21:32:21 10° NE visible
21 Oct 9.0 23:11:21 21° WNW 23:12:51 23° WNW 23:17:43 10° N visible
22 Oct 9.0 21:38:07 39° NE 21:38:07 39° NE 21:41:54 10° NNE visible
22 Oct 9.5 23:21:43 15° WNW 23:22:28 15° NW 23:25:54 10° NNW visible
23 Oct 9.3 21:48:16 30° NNE 21:48:16 30° NNE 21:51:13 10° NNE visible
24 Oct 9.6 21:58:13 21° N 21:58:13 21° N 22:00:19 10° N visible
25 Oct 9.9 22:08:03 15° N 22:08:03 15° N 22:09:12 10° N visible
